Theta_e
312 315 317 320 319 323 326 328 334 337 340 337 332 331 327 329 331 330 325 323 322 316 313 314 315 317 317 315 312 311 310 310 312 324 329 316 313 316 317 321 325 328 331 333 335 335 335 335 336 337 336 336 335 334 332 328 326 327 328 327 325 327 330 332 333 334 334 334 334 334 334 333 334 334 333 333 333 333 333 333 333 333 332 332 330 329 327 327 329 329 329 329 330 330 330 331 330
311 315 317 320 319 325 328 330 339 339 338 333 327 327 326 327 328 326 324 322 321 315 313 313 314 313 313 312 311 312 310 307 307 311 313 312 314 315 319 324 326 327 329 333 334 334 335 333 335 335 335 335 334 334 333 330 329 330 331 330 330 330 330 331 332 333 334 334 334 334 334 333 333 333 333 333 333 333 333 333 333 334 333 332 332 331 329 327 328 329 329 329 329 330 330 331 331
311 314 317 319 320 325 328 333 342 340 338 334 325 324 325 324 323 322 320 318 316 314 314 314 314 312 312 312 311 313 310 308 309 309 310 313 315 317 322 325 324 325 327 332 334 334 333 332 333 333 334 334 334 334 333 332 331 332 332 332 332 332 332 332 332 332 333 333 334 334 334 333 333 333 333 333 333 332 333 333 333 333 333 333 333 333 332 330 328 328 329 329 329 330 331 331 330
311 314 316 319 321 326 331 336 342 341 336 333 327 324 324 322 319 318 317 317 315 315 316 314 312 310 311 310 309 311 309 307 308 309 310 313 314 318 323 324 325 324 326 330 332 333 332 332 333 333 333 334 334 334 334 333 333 333 332 333 333 333 333 333 332 332 332 332 333 333 333 333 332 332 332 332 332 331 331 332 332 333 333 334 333 333 333 332 331 329 329 329 330 330 331 331 330
311 315 317 321 324 326 332 333 332 334 328 329 329 323 322 319 317 315 315 317 316 317 317 315 313 309 309 307 306 308 307 307 307 309 310 311 313 317 322 324 325 325 326 328 330 332 330 331 332 332 332 332 333 333 333 333 333 333 333 333 332 332 332 332 332 331 332 331 332 332 332 331 332 332 332 332 331 331 330 330 331 331 332 333 333 334 334 333 332 331 330 329 329 330 331 331 330
311 315 319 323 324 324 331 331 325 325 319 321 324 319 320 318 315 315 314 315 315 316 316 315 314 309 306 305 304 304 305 307 307 309 309 309 312 316 321 324 325 325 325 326 328 329 329 330 331 332 331 331 332 332 332 332 332 332 332 332 332 332 331 331 331 331 331 331 331 331 330 330 330 330 330 330 329 328 328 327 327 328 329 329 331 333 334 334 334 333 332 330 330 330 330 331 331
312 316 320 324 323 321 327 326 321 321 316 315 317 316 318 318 316 315 315 317 315 314 314 313 313 311 306 306 306 302 303 306 306 308 309 310 313 317 321 323 324 324 324 325 326 328 328 328 329 330 330 330 331 331 331 331 331 331 331 331 331 331 330 330 330 330 330 330 330 330 329 329 329 328 327 327 326 327 327 326 326 325 325 325 326 328 329 331 333 333 333 332 331 331 331 331 331
313 317 319 326 327 323 322 320 318 318 315 313 314 314 315 315 316 314 313 315 314 312 312 311 312 312 307 306 306 302 301 303 305 307 309 310 313 317 321 323 323 323 323 324 325 326 326 327 327 327 328 329 328 329 329 329 329 329 329 329 329 329 329 328 328 328 328 328 328 328 328 328 328 327 326 326 326 326 326 326 325 325 325 324 323 323 324 326 330 332 333 333 332 332 332 331 332
315 318 318 326 328 323 321 319 317 315 313 312 313 313 313 313 314 313 311 311 311 310 310 311 313 312 307 304 303 300 300 303 304 306 309 311 313 315 319 321 321 321 322 322 323 323 324 324 325 325 326 326 326 326 326 327 327 327 327 327 328 327 328 327 327 327 327 327 326 327 327 328 327 327 326 326 326 325 325 325 325 325 325 325 324 322 322 322 324 327 330 332 332 332 332 333 332
317 319 318 325 325 320 320 319 318 314 313 312 311 312 313 312 312 312 311 310 310 309 309 311 312 310 306 303 302 299 299 302 303 305 309 312 314 316 318 319 319 320 321 321 321 321 321 322 323 324 324 325 324 324 325 325 325 326 326 325 326 325 325 325 325 326 326 325 326 327 327 328 327 327 327 326 326 326 326 325 325 325 325 324 324 323 322 321 321 322 325 327 329 329 331 333 333
317 317 320 329 327 322 319 317 316 313 312 312 310 311 312 312 312 311 311 311 310 310 309 310 309 306 305 303 301 298 299 303 305 307 310 312 313 315 315 315 315 316 316 316 316 316 316 317 318 318 319 321 321 322 322 323 324 324 323 323 323 323 322 323 323 324 325 324 325 326 326 326 326 326 326 326 326 325 326 326 325 325 325 325 324 323 322 321 321 320 321 323 324 326 328 331 332
317 319 329 332 324 319 316 314 313 312 311 311 311 310 311 311 311 309 310 310 310 310 309 310 309 307 305 303 300 299 301 302 304 308 309 310 310 310 310 309 309 308 308 308 309 309 310 310 310 310 311 312 313 314 314 315 316 316 316 316 316 316 317 318 318 320 321 321 322 322 322 323 325 325 324 323 324 325 325 324 324 324 324 325 325 325 323 322 321 320 320 320 321 321 323 325 328
316 319 330 324 315 315 315 314 313 314 313 310 309 309 310 310 308 308 308 309 308 310 310 309 310 310 305 302 299 299 301 300 301 304 304 305 305 305 305 304 304 304 304 305 305 306 306 307 307 307 307 307 307 308 308 308 308 308 309 309 309 309 309 310 311 312 312 313 313 313 314 316 318 318 318 318 319 320 320 320 320 321 322 323 324 324 324 322 321 321 321 321 321 321 321 321 323
317 317 323 318 315 316 315 316 315 318 315 308 307 306 308 307 306 308 309 308 305 305 307 307 309 310 305 301 300 300 300 298 298 300 300 301 302 303 304 303 303 303 304 305 305 306 306 306 306 306 306 307 307 307 307 307 306 307 307 307 307 307 306 307 307 308 308 307 307 307 307 308 309 309 309 310 311 311 312 313 314 315 316 318 320 321 322 322 322 321 321 321 321 321 321 321 322
316 315 321 321 318 317 316 317 317 320 315 308 307 306 306 304 305 308 306 307 304 303 306 307 309 309 307 303 301 301 299 297 297 298 299 300 302 303 303 303 304 304 306 307 308 308 308 309 308 308 307 307 307 307 308 307 307 308 308 307 307 307 307 306 306 306 306 306 306 306 305 306 305 304 304 304 304 304 305 306 307 308 309 311 313 315 317 319 320 321 321 321 321 321 321 321 322
315 313 321 322 317 316 316 315 315 319 313 306 306 307 306 303 306 306 303 306 305 304 306 305 307 306 305 304 301 301 299 297 298 298 298 300 301 302 303 303 305 306 307 308 309 309 309 310 310 309 309 308 308 308 308 308 308 308 308 308 308 308 308 307 307 306 306 306 306 305 305 307 307 305 304 303 302 301 301 301 302 303 304 306 308 309 310 313 315 317 319 320 320 321 321 321 322
314 314 317 317 314 315 314 314 315 316 311 305 305 307 305 302 304 305 304 307 303 302 304 302 303 303 303 302 300 300 299 298 298 298 299 300 301 302 303 304 305 307 307 308 308 308 308 308 308 308 308 308 308 308 308 308 307 307 307 307 307 308 308 308 308 308 308 308 307 306 306 306 306 305 304 302 301 300 300 300 299 299 299 301 302 304 304 305 307 309 312 315 318 319 320 321 321
314 315 314 313 313 311 310 312 313 311 309 305 304 305 305 303 303 304 304 304 300 300 300 299 300 301 301 301 299 300 299 298 298 298 299 299 300 302 303 304 305 306 306 306 306 306 306 306 305 305 306 306 306 306 307 307 307 306 306 305 305 305 306 306 307 307 308 308 308 307 307 307 307 306 304 303 301 299 299 299 298 297 297 298 298 299 300 300 301 302 304 306 310 313 316 318 319
310 312 312 310 309 306 304 307 307 307 306 303 304 304 306 304 303 304 302 299 299 299 297 298 299 299 299 299 300 300 299 298 297 297 298 299 301 302 304 304 304 304 303 302 301 301 301 301 300 300 300 301 302 302 302 303 303 302 301 301 301 301 301 302 303 303 304 304 305 305 306 306 306 307 306 305 304 301 300 299 297 297 297 297 297 297 298 298 298 298 298 300 301 304 307 311 315
306 309 310 308 306 303 303 304 304 305 304 301 302 304 303 302 303 303 300 299 299 298 297 297 297 297 297 298 298 298 298 297 297 298 299 301 302 303 303 302 300 299 298 297 296 296 296 296 296 295 295 296 297 297 297 298 298 298 297 297 297 297 297 297 298 298 298 299 299 300 301 302 303 304 305 305 305 305 304 303 301 299 298 298 298 298 298 297 297 297 297 297 297 299 300 302 305
305 306 308 306 304 304 303 303 303 304 304 302 301 302 301 301 303 302 301 303 300 298 299 298 297 297 297 297 297 297 297 298 299 300 301 302 302 301 299 296 295 294 294 293 293 293 294 294 294 294 294 294 294 295 295 295 294 295 295 295 295 295 295 295 295 295 295 295 295 296 297 298 299 300 301 302 303 304 304 304 304 303 302 301 300 298 297 297 297 297 296 297 297 297 297 298 298
304 303 304 304 304 304 303 303 304 303 303 303 301 301 301 300 301 300 302 304 300 298 299 298 297 297 297 298 298 299 299 300 300 300 300 300 298 296 294 293 293 292 292 292 292 293 293 293 294 293 294 294 294 294 294 294 294 294 294 294 294 294 294 293 293 293 293 293 293 294 294 295 295 296 297 298 299 300 299 300 301 302 303 304 303 302 301 300 299 298 296 296 296 296 296 296 297
305 303 302 303 304 303 303 304 304 305 305 302 300 300 300 300 299 299 300 299 298 298 298 298 298 298 299 299 299 299 299 298 298 298 297 296 294 293 292 292 292 292 292 293 293 293 293 293 293 293 294 294 294 294 294 294 294 294 293 293 293 293 293 293 293 293 293 293 293 293 293 293 294 294 294 295 295 295 295 296 296 297 299 300 301 302 303 302 301 301 299 297 296 296 296 296 296
304 304 302 302 304 303 303 305 304 306 304 301 301 301 300 300 299 298 298 297 298 299 298 298 298 298 298 298 297 297 296 296 295 294 294 293 292 292 292 292 293 293 293 293 294 294 294 294 294 294 294 294 294 294 294 294 294 294 294 294 293 294 293 293 293 293 293 293 293 293 293 293 293 293 293 294 294 294 294 294 294 294 295 295 296 297 298 298 298 299 299 299 298 297 297 296 296
304 304 303 302 303 303 304 304 304 304 302 301 302 301 299 300 299 297 297 297 298 298 298 299 298 298 298 297 296 295 295 294 293 293 292 292 292 292 293 293 293 294 294 294 294 294 294 294 294 295 295 294 294 294 294 294 294 294 294 294 293 293 293 293 293 293 293 293 293 293 293 293 293 293 293 293 293 293 293 293 293 293 293 293 294 294 294 294 295 295 296 296 297 296 296 296 296
304 304 303 303 302 303 304 303 303 303 302 303 301 298 298 300 299 298 297 297 298 298 298 298 298 297 296 296 296 295 294 293 292 292 292 292 292 293 293 293 294 294 294 294 294 294 294 294 294 294 294 294 294 294 294 293 293 293 293 293 293 293 293 292 292 292 292 292 292 293 292 292 292 292 292 293 293 293 293 293 293 293 293 293 293 293 293 293 293 293 294 294 294 294 294 295 295
303 303 303 303 303 303 303 303 303 303 302 303 301 297 298 300 300 299 297 297 297 297 297 297 296 296 295 295 294 294 294 293 293 292 292 292 293 293 293 294 294 294 294 294 294 294 294 294 294 294 294 294 294 294 294 294 293 293 293 293 292 292 292 292 292 292 292 292 292 292 292 292 292 292 292 292 292 292 292 292 292 292 292 292 292 292 292 292 292 292 293 293 293 293 293 293 294
303 303 303 302 303 303 303 303 302 303 302 302 302 298 298 300 301 300 297 297 297 297 296 296 296 295 295 295 294 294 294 294 294 294 293 293 293 293 294 293 294 294 294 294 294 294 294 294 294 294 294 294 295 295 294 294 294 294 293 293 292 292 292 292 292 292 292 292 292 292 292 292 292 292 292 292 292 292 292 292 292 292 292 292 292 292 292 292 292 292 292 292 293 293 293 293 293
303 304 304 303 305 304 303 303 303 303 302 302 302 303 304 303 300 298 297 297 297 296 296 296 296 295 295 295 295 295 294 295 294 294 294 294 294 294 294 294 294 294 294 294 294 294 294 294 294 294 294 294 294 295 295 294 294 294 293 293 292 292 292 291 291 291 291 291 292 292 292 291 291 292 292 292 292 292 292 292 292 292 292 292 291 291 291 291 291 292 292 292 292 292 292 292 293
304 303 303 307 311 307 302 303 303 303 302 302 302 306 310 304 298 297 298 297 297 297 296 296 296 295 295 295 295 295 295 295 294 294 295 294 294 294 294 294 294 294 294 294 294 294 294 294 294 294 294 294 294 294 294 294 294 294 294 293 293 292 292 291 291 291 291 291 291 291 291 291 291 291 291 291 292 292 292 292 292 292 291 291 291 291 291 291 291 291 291 291 291 291 292 292 292
305 304 305 310 312 306 303 302 303 304 303 302 303 305 309 304 298 297 297 297 297 297 296 296 296 296 295 295 295 295 295 295 295 294 294 294 294 294 294 294 294 294 294 294 294 294 294 294 294 294 294 294 294 294 294 294 294 294 294 293 293 292 292 291 291 291 291 291 291 291 291 291 291 291 291 291 291 292 292 292 292 291 291 291 291 291 291 290 290 290 290 290 290 290 290 291 291
306 306 308 309 308 306 305 302 302 304 303 302 304 306 309 305 299 297 297 297 297 297 297 296 296 296 296 296 296 295 295 295 295 294 294 294 294 294 294 294 294 294 294 294 294 294 294 294 294 294 294 294 294 294 294 294 294 294 294 293 293 293 292 291 291 291 291 291 291 291 291 291 291 291 291 291 291 291 291 291 291 291 291 291 291 291 290 290 290 290 290 290 289 290 290 290 290
308 306 307 307 305 305 305 303 301 302 302 302 303 304 307 304 299 298 298 297 297 297 297 296 296 296 296 296 296 296 295 295 295 295 295 294 294 294 294 294 294 294 294 294 294 294 294 294 294 294 294 294 294 294 294 294 294 294 293 293 293 293 292 292 291 291 291 291 291 291 291 291 292 291 291 291 291 291 291 291 291 291 291 290 290 290 290 290 290 289 290 289 289 289 289 289 289
310 307 308 306 303 304 304 304 302 301 302 303 302 303 306 303 298 298 298 297 297 297 297 297 296 297 296 296 296 296 296 295 295 295 295 294 294 294 294 294 294 294 294 294 294 294 294 294 294 294 294 294 294 294 294 294 294 293 293 293 293 292 292 292 291 291 291 291 291 291 291 291 291 291 291 291 291 291 291 291 291 291 291 290 290 290 290 290 289 289 289 289 289 288 288 288 289
307 307 308 307 304 304 303 303 302 301 301 303 304 303 304 303 298 297 298 298 297 297 297 297 297 297 296 296 296 296 296 296 296 295 295 294 295 295 295 295 295 294 294 294 294 294 294 294 294 294 294 294 294 294 294 294 294 293 293 293 293 292 292 292 291 291 291 291 291 291 291 291 291 291 291 291 291 291 291 291 291 291 291 290 290 290 290 290 289 289 289 289 289 288 288 288 288
306 305 306 304 303 303 301 302 301 299 301 304 304 303 302 302 300 297 298 298 298 297 297 297 297 297 297 297 297 296 296 296 296 296 296 295 296 296 295 295 295 295 295 294 294 295 295 295 295 294 294 294 294 294 294 294 294 293 293 293 293 293 293 292 292 291 291 291 291 291 291 291 291 291 291 291 291 291 291 291 291 291 291 290 290 290 290 290 289 289 289 289 288 288 288 288 288
304 305 305 302 301 301 300 301 300 298 301 305 303 302 301 301 300 297 297 298 297 297 298 297 297 297 297 297 297 297 297 296 296 296 296 296 296 296 296 296 295 295 295 295 295 295 295 295 295 295 294 294 294 294 294 294 294 294 294 294 293 293 293 293 292 292 291 291 291 291 292 292 292 291 291 291 291 291 291 291 291 291 291 290 290 290 290 290 289 289 289 289 288 288 288 288 288
304 306 306 303 300 300 300 300 300 298 300 304 303 302 301 299 298 296 296 297 297 297 298 298 298 298 298 297 297 297 297 297 296 296 296 296 296 296 296 296 296 296 295 295 296 295 295 295 295 295 294 294 294 294 294 294 294 294 294 294 294 294 293 293 293 292 292 291 291 292 292 292 292 291 291 291 291 291 291 291 291 291 291 291 290 290 290 290 290 289 289 289 288 288 288 288 288
305 306 307 305 300 301 302 301 301 298 300 305 304 301 300 298 296 296 296 297 297 298 298 298 298 298 298 298 298 298 297 297 297 296 296 296 296 296 297 296 296 296 296 296 296 295 295 295 295 294 294 294 293 293 293 294 294 294 294 294 294 294 293 293 293 293 292 292 292 291 292 292 291 291 291 291 291 291 291 291 291 291 291 291 290 290 290 290 290 289 289 289 289 288 288 288 288
304 304 305 303 300 301 302 301 300 298 300 303 303 301 299 298 297 296 296 298 298 298 298 298 298 298 298 298 298 298 298 298 297 297 296 296 297 297 297 296 296 296 296 296 296 295 295 294 294 294 294 294 293 293 293 293 293 293 294 294 294 294 293 293 293 293 292 292 292 291 291 291 291 291 291 291 291 291 291 291 291 291 291 291 290 290 290 290 289 289 289 289 289 288 288 288 288
303 303 303 301 300 300 300 301 300 300 301 300 302 305 301 298 298 296 296 297 297 298 298 298 298 298 298 298 298 298 298 298 298 297 297 297 297 297 296 296 296 296 296 296 295 295 295 294 294 294 294 294 293 293 292 292 292 292 293 293 293 293 293 293 293 292 292 292 292 292 291 291 291 291 291 291 291 291 291 291 291 291 291 290 290 290 290 290 290 289 289 289 289 289 288 288 288
304 303 301 301 300 299 300 301 301 304 305 300 303 308 303 299 299 298 296 296 296 297 297 298 298 299 299 299 299 298 298 298 297 297 297 297 297 297 297 297 296 296 296 296 295 295 295 294 294 294 294 293 293 293 293 292 292 292 292 292 293 293 293 292 292 292 292 292 292 291 291 291 291 291 291 291 291 291 291 291 291 291 290 290 290 290 290 290 290 289 289 289 289 289 288 288 288
304 301 301 300 299 299 300 302 303 305 305 301 303 308 305 301 300 299 298 297 297 297 296 297 298 298 299 299 299 298 298 298 298 298 297 297 297 297 297 297 297 296 296 296 295 295 295 294 294 294 293 293 293 293 292 292 292 292 292 292 292 292 292 292 292 292 292 291 291 291 291 291 291 291 291 291 291 291 291 290 290 290 290 290 290 290 290 290 290 289 289 289 289 288 288 288 288
303 302 301 300 298 299 300 302 304 303 305 306 304 305 306 303 300 299 298 297 298 298 296 296 297 297 298 298 298 298 298 298 298 298 297 297 297 297 297 296 296 296 295 295 295 294 294 294 294 293 293 293 293 293 292 292 292 292 292 292 292 292 292 292 291 291 291 291 291 291 291 291 291 291 291 291 290 290 290 290 290 290 290 290 290 290 290 290 290 289 289 289 288 288 288 288 288
304 301 299 298 298 299 300 303 305 303 307 309 302 302 306 303 300 299 298 298 298 298 298 296 296 297 297 297 298 297 297 297 297 297 297 296 296 296 295 295 295 295 294 294 294 294 294 293 293 293 293 293 293 292 292 292 292 292 292 292 292 292 292 291 291 291 291 291 291 291 291 291 291 291 290 290 290 290 290 290 290 290 290 290 290 290 290 289 289 289 289 289 288 288 288 288 287
302 298 299 301 300 301 302 303 304 306 310 307 300 300 304 303 301 299 299 298 298 298 298 296 296 297 297 297 297 297 296 296 296 296 296 295 295 295 295 294 294 294 294 294 294 293 293 293 293 293 293 293 293 292 292 292 292 292 292 292 292 292 291 291 291 291 291 291 291 291 291 291 290 290 290 290 290 290 290 290 290 290 289 289 289 289 289 289 289 289 289 288 288 288 287 287 287
299 298 302 304 302 302 304 302 304 310 312 306 300 299 301 303 300 298 298 298 297 299 299 296 296 297 297 297 296 296 296 296 295 295 295 295 295 294 294 294 294 294 294 293 293 293 293 293 293 293 293 293 292 292 292 292 292 292 292 292 292 291 291 291 291 291 291 291 291 291 291 290 290 290 290 290 290 290 290 290 290 289 289 289 289 289 289 289 289 289 288 288 288 287 287 287 286
298 300 302 305 306 304 306 308 309 312 309 304 301 299 301 305 303 298 299 298 296 297 298 297 296 296 296 296 296 296 295 295 295 295 295 294 294 294 294 294 294 294 293 293 293 293 293 293 293 293 293 292 292 292 292 292 292 292 292 292 292 292 291 291 291 291 291 291 291 290 290 290 290 290 290 289 289 289 289 289 289 289 289 289 289 289 289 289 288 288 287 287 287 286 286 286 286
299 301 302 308 312 308 308 312 310 308 306 302 299 299 303 305 303 300 299 299 297 296 297 297 295 296 296 296 296 296 295 295 295 295 294 294 294 294 294 294 294 293 293 293 293 293 293 293 293 293 293 292 292 292 292 292 292 292 292 292 291 291 291 291 291 291 291 290 290 290 290 290 289 289 289 289 289 289 288 288 288 288 288 288 288 287 287 287 287 286 286 286 285 285 285 285 285
300 301 302 306 310 308 308 308 304 306 306 302 297 299 303 302 300 300 299 297 297 296 296 296 295 295 296 295 295 295 295 295 294 294 294 294 294 294 294 294 294 293 293 293 293 293 293 293 293 293 293 293 292 292 292 292 292 292 292 291 291 291 291 291 290 290 290 290 290 289 289 289 288 288 288 288 288 287 287 287 287 286 286 285 285 285 285 284 284 284 284 284 284 284 284 284 284
301 300 301 303 303 303 305 305 304 305 304 302 300 300 302 302 300 299 298 296 297 297 296 296 296 296 295 295 295 295 295 294 294 294 294 294 294 294 294 294 294 294 293 293 293 293 293 293 293 293 292 292 292 292 292 292 292 292 291 291 291 291 291 290 290 290 290 289 289 288 288 287 287 287 286 286 286 286 285 285 284 284 283 283 282 282 282 282 282 283 283 283 283 283 283 283 283
301 300 302 303 300 300 302 301 300 301 301 304 305 302 301 300 297 296 296 295 296 296 296 296 295 295 295 295 295 295 294 294 294 294 294 294 294 294 294 294 294 293 293 293 293 293 293 293 293 293 292 292 292 292 292 292 291 291 291 291 291 290 290 290 290 289 289 288 287 286 286 285 285 285 284 284 283 283 283 282 282 281 281 281 281 281 281 281 282 282 282 282 282 282 283 283 283
302 302 302 299 297 299 301 300 298 298 301 304 303 301 300 299 298 297 295 295 296 295 295 296 295 295 295 295 295 294 294 294 294 294 294 294 294 294 294 294 294 293 293 293 293 293 293 293 293 292 292 292 292 292 291 291 291 291 291 290 290 289 289 289 288 287 286 285 284 284 283 283 282 282 281 281 281 280 280 280 280 280 280 280 280 280 281 281 281 281 281 282 282 282 282 282 282
301 303 299 296 297 300 300 300 301 302 304 304 301 299 300 300 299 297 295 296 298 296 295 295 295 295 295 295 295 295 295 295 294 294 294 294 294 294 294 294 294 293 293 293 293 293 293 293 292 292 292 292 291 291 291 291 291 290 290 289 289 288 287 286 285 284 283 282 282 281 281 280 280 280 280 279 279 279 279 279 279 279 279 280 280 280 280 280 280 280 280 281 281 281 281 281 281
298 298 296 297 301 303 300 300 302 302 303 304 301 298 298 300 299 298 296 297 298 297 295 294 294 295 295 295 295 295 295 295 294 294 294 294 294 294 294 294 293 293 293 293 293 293 293 292 292 292 292 291 291 291 291 290 289 289 288 287 286 285 283 282 282 281 281 280 280 279 279 279 279 279 279 279 279 279 279 279 279 279 279 279 279 279 279 279 280 280 280 280 280 280 280 280 280
298 298 298 300 302 300 298 299 300 300 302 303 302 301 302 302 301 300 298 298 298 298 296 294 294 295 294 294 295 295 295 294 295 294 294 294 294 294 294 294 293 293 293 293 293 293 292 292 292 292 292 291 291 290 290 289 288 287 286 285 283 282 281 280 280 280 279 279 279 279 279 279 278 278 278 278 278 278 278 278 278 279 279 279 279 279 279 279 279 279 279 279 279 279 279 280 279
299 300 299 301 301 298 298 298 297 299 302 302 301 303 305 302 300 300 300 298 297 296 295 294 294 294 295 295 295 295 295 294 295 294 294 294 294 294 294 293 293 293 293 293 293 293 292 292 292 291 291 291 290 289 288 288 286 285 283 282 281 280 280 280 279 279 279 279 279 279 278 278 278 278 278 278 278 278 278 278 278 278 278 278 278 278 278 278 278 278 278 278 279 279 279 279 279
297 297 297 299 300 300 301 300 298 297 298 300 300 301 304 300 297 297 298 296 295 295 295 294 294 295 295 295 295 295 295 295 295 294 294 294 294 294 293 293 293 293 293 293 292 292 292 292 291 291 291 290 289 288 287 286 284 282 281 280 280 280 280 280 280 280 279 279 279 278 278 278 278 278 277 277 277 277 277 277 277 277 277 277 277 277 277 277 277 277 277 278 278 278 278 278 278
Wind_Speed
8 8 8 7 6 4 2 1 0 2 3 2 3 1 3 5 3 3 3 4 3 5 12 24 24 19 15 15 19 18 15 9 3 1 3 1 5 8 9 5 11 18 20 21 23 25 26 27 24 16 13 15 16 16 15 14 13 13 13 12 12 12 12 10 9 9 8 8 7 7 7 7 7 6 5 4 3 4 4 3 3 3 3 3 3 3 2 1 2 4 4 5 5 5 5 5 6
8 9 8 7 6 3 3 2 1 1 4 2 2 2 3 4 4 4 3 3 6 10 15 26 29 27 21 20 17 14 15 13 8 3 3 3 2 3 5 9 15 17 19 19 18 22 24 24 27 24 19 18 18 18 17 16 14 13 14 13 12 12 10 9 9 9 8 9 8 8 9 8 8 8 7 7 6 6 7 5 4 5 4 4 3 3 2 2 2 3 4 5 5 5 5 5 5
9 9 8 7 6 4 3 2 1 1 4 2 2 3 3 4 5 5 6 10 16 18 13 16 19 17 12 13 11 8 7 8 12 5 2 2 2 4 10 15 16 16 17 17 15 18 20 19 22 23 24 23 22 19 18 17 14 13 14 14 13 12 11 10 10 10 8 8 9 9 9 9 8 9 9 8 8 8 8 7 6 6 6 5 4 3 2 2 3 4 4 5 5 4 6 7 5
10 10 9 8 6 4 2 3 2 3 3 3 2 3 3 6 6 7 9 13 15 10 3 6 12 14 14 12 8 8 7 6 10 7 4 6 6 11 15 16 16 16 16 15 14 16 18 18 18 19 21 24 24 22 21 20 16 14 15 14 14 13 13 11 10 9 8 7 8 8 8 8 8 9 9 8 8 7 6 6 7 7 7 6 5 5 4 3 3 4 4 6 5 4 7 8 7
11 10 10 9 5 2 2 3 2 4 2 3 3 2 3 6 7 8 12 13 9 4 3 7 7 10 17 16 8 4 6 4 6 7 6 8 11 14 16 15 15 16 15 15 14 16 16 16 17 17 17 19 22 22 22 21 19 17 16 15 14 12 11 10 8 8 7 6 5 6 6 5 5 6 7 6 7 7 6 4 4 5 5 5 6 7 6 4 3 5 5 6 6 6 7 7 8
12 11 10 7 3 2 3 3 3 5 2 1 2 2 2 7 10 12 16 18 14 11 11 12 11 12 14 14 15 12 8 5 4 6 6 8 12 14 16 15 15 16 15 15 14 15 15 13 14 15 15 15 17 16 16 16 15 15 14 13 11 10 9 7 6 6 4 3 3 3 4 3 2 2 2 2 3 3 5 5 3 3 3 3 3 4 6 7 4 4 6 7 8 8 9 9 10
13 11 9 5 4 3 4 4 4 4 4 5 2 4 3 7 9 10 9 10 12 14 14 15 15 14 9 4 10 16 14 9 7 6 6 9 12 14 15 14 15 14 13 13 13 13 13 10 10 13 12 10 11 10 10 10 9 10 10 8 7 6 6 4 3 2 1 0 1 2 1 1 0 3 3 2 4 5 6 6 5 6 6 5 4 4 4 5 5 3 3 6 9 9 10 10 11
13 10 7 4 4 4 4 5 4 3 4 6 5 7 7 5 6 6 6 5 6 9 9 12 13 11 6 4 6 11 14 11 10 7 6 9 11 14 15 14 15 14 13 12 11 11 12 9 8 9 10 8 7 7 6 5 5 4 4 3 3 3 3 4 4 3 3 3 3 3 3 2 1 3 5 4 5 6 6 6 6 7 7 7 7 7 7 7 5 4 4 3 5 8 11 12 12
12 7 4 4 4 4 4 4 4 4 4 5 7 10 12 11 9 8 9 9 8 11 8 4 4 8 8 11 9 9 12 9 9 7 8 11 12 15 16 17 17 17 16 14 13 13 13 11 8 8 10 9 7 8 7 7 8 8 6 4 4 5 6 8 8 7 7 6 5 6 6 6 4 5 7 7 7 7 8 7 7 8 8 7 8 8 8 8 8 8 6 4 5 5 6 9 11
9 5 3 3 4 5 4 3 3 3 4 4 8 12 12 13 15 14 11 10 9 13 15 8 9 14 13 10 8 8 9 7 8 7 11 15 16 18 20 21 20 20 20 18 19 19 18 16 14 12 11 10 8 9 9 9 10 10 9 8 7 8 8 8 9 8 9 9 7 7 7 7 7 8 9 10 11 10 10 10 9 9 9 8 8 8 9 9 9 9 10 10 10 8 5 4 8
5 2 2 4 4 4 3 3 4 3 3 3 7 13 11 10 16 15 12 11 9 9 12 12 15 19 14 8 7 7 4 6 9 10 15 18 20 22 23 24 24 23 23 23 23 23 24 22 21 20 18 16 14 13 13 12 11 11 12 12 12 13 13 12 12 10 10 10 8 8 9 9 9 11 12 13 13 13 13 13 11 10 10 10 9 9 10 10 9 10 10 11 12 11 9 6 7
2 2 3 4 3 3 3 4 4 2 3 3 5 9 9 11 12 9 9 10 9 11 10 8 12 15 10 6 7 4 4 9 11 15 19 20 22 23 23 24 24 24 23 23 23 23 24 23 23 23 23 21 20 19 18 18 16 15 16 16 17 17 17 16 16 14 12 12 11 10 11 10 9 11 13 13 12 13 13 13 11 10 10 10 10 10 11 11 10 10 10 12 12 12 11 10 10
3 1 5 4 2 3 5 4 2 2 3 2 3 5 7 11 10 5 9 11 9 10 10 10 11 7 7 7 8 6 7 10 11 17 20 21 22 22 22 23 22 22 22 21 22 22 22 21 22 21 21 20 19 19 18 19 18 17 17 16 16 17 17 16 16 15 14 13 13 13 13 13 11 12 13 13 12 12 12 11 10 9 9 9 10 10 11 12 12 11 11 12 12 12 11 10 11
5 5 7 3 2 3 4 3 2 3 1 1 1 5 9 9 8 6 8 9 9 6 7 9 9 6 9 8 7 9 11 11 11 15 19 21 22 22 21 20 20 19 19 19 19 19 18 18 18 18 17 16 16 16 16 16 16 16 15 15 15 15 15 15 14 14 13 13 13 13 13 13 13 13 13 13 13 13 13 13 12 12 11 10 10 9 9 11 12 12 12 12 12 13 12 11 10
8 9 7 3 2 2 2 3 3 5 3 2 3 7 13 10 4 7 8 6 5 6 7 7 7 6 7 7 7 12 14 14 12 14 19 21 21 21 19 18 18 16 15 14 13 13 13 13 13 13 13 13 13 13 13 12 12 12 12 12 12 12 13 13 13 12 12 11 11 12 12 12 13 13 13 14 14 14 14 14 14 14 13 12 11 10 10 10 11 12 12 12 13 13 14 13 12
13 11 6 3 3 1 2 2 3 4 2 4 7 6 11 11 6 7 7 6 9 6 5 4 3 4 8 11 13 16 15 15 14 15 18 19 19 19 17 14 13 12 10 9 9 9 9 8 8 9 9 10 10 11 10 10 10 9 9 8 9 9 9 10 11 11 11 10 10 10 11 11 12 13 13 13 14 14 14 14 14 14 14 14 13 12 11 10 11 11 12 13 13 13 14 14 14
13 10 6 3 3 2 2 2 2 3 2 6 6 2 6 8 10 13 8 10 14 11 9 10 8 9 13 15 15 16 15 14 14 15 17 17 16 15 13 11 9 8 8 7 8 8 8 7 7 7 7 7 7 8 9 9 9 9 8 7 8 8 7 8 9 9 10 10 10 9 9 10 10 11 12 12 13 14 13 13 14 14 14 14 15 14 12 11 10 11 11 12 13 13 14 15 15
8 5 5 4 2 2 1 3 3 4 4 4 2 4 10 7 6 11 9 11 16 16 15 14 13 14 15 16 15 15 15 14 14 14 15 15 14 12 10 8 6 6 7 7 7 7 7 7 8 8 8 8 8 9 8 9 9 10 9 8 9 9 8 8 8 9 10 11 11 11 10 10 10 10 11 11 12 13 13 14 14 13 13 14 15 15 14 13 12 11 11 11 12 13 14 15 15
11 3 4 4 1 3 5 4 5 6 8 9 8 8 11 8 5 5 4 8 12 13 14 14 17 16 14 14 13 14 14 13 13 13 13 12 9 6 5 6 6 6 7 8 9 9 9 10 11 12 12 12 11 12 12 11 11 12 12 13 13 12 11 10 10 10 10 11 11 11 11 11 11 11 12 12 12 12 13 13 14 14 14 14 14 15 15 15 14 13 12 12 12 12 13 14 15
11 7 6 2 2 6 13 15 13 13 15 14 11 10 12 8 5 5 8 10 9 7 7 10 16 15 14 13 12 13 13 13 13 11 9 6 4 4 5 6 7 9 11 12 14 14 14 15 16 16 17 17 16 16 16 15 15 15 15 15 16 15 15 14 13 13 12 12 12 12 12 12 12 12 13 13 13 14 14 15 15 15 15 15 16 17 16 16 15 14 14 13 13 13 13 13 13
8 7 5 1 5 7 13 19 18 18 18 15 13 12 12 9 8 9 9 9 6 3 4 9 16 16 15 14 13 12 12 11 9 6 4 3 4 5 7 10 12 14 15 16 16 16 16 16 17 17 17 16 16 16 15 15 15 14 14 14 14 14 14 14 14 13 13 12 12 13 12 12 13 13 13 13 13 15 16 16 17 18 18 18 19 18 18 18 17 17 16 15 15 14 14 14 14
9 8 8 8 10 7 9 17 17 16 16 15 12 10 8 9 12 8 5 5 2 3 7 14 17 16 16 14 12 10 9 8 6 5 4 5 7 9 12 13 14 15 15 15 15 15 15 15 15 14 14 13 14 13 13 13 12 12 12 12 12 12 12 11 11 11 11 12 12 11 11 11 11 11 11 11 11 13 14 14 15 17 18 20 20 19 20 21 22 22 20 17 16 15 14 14 15
10 8 14 16 14 10 10 15 12 10 13 11 9 8 8 10 12 11 12 11 7 10 14 16 16 14 14 12 10 9 8 8 7 7 7 9 11 12 13 13 13 13 13 13 13 14 13 13 13 13 13 13 13 13 13 12 11 11 11 11 11 11 10 10 10 11 11 11 11 11 11 11 11 11 10 9 9 10 10 11 11 12 14 15 17 18 20 21 23 24 23 21 20 18 17 16 15
16 6 10 17 18 16 13 15 12 10 14 12 10 10 8 8 8 11 15 13 11 13 14 14 14 12 11 10 9 9 8 9 9 9 10 12 12 12 12 11 11 11 11 12 12 13 13 13 13 13 14 14 14 14 13 13 12 12 11 11 11 11 11 10 10 11 11 11 12 12 13 13 13 13 13 12 12 12 11 11 11 11 11 10 11 13 14 15 17 19 21 22 22 21 20 19 18
12 7 8 13 16 17 15 15 14 14 15 13 12 11 10 11 11 11 11 11 11 10 10 10 10 8 7 7 7 7 8 8 9 10 11 10 10 10 10 9 9 9 10 11 12 12 13 14 13 13 14 14 14 14 14 14 14 13 13 12 12 11 11 11 11 11 12 12 13 13 14 14 14 15 15 15 14 15 14 14 14 14 13 13 13 13 13 13 13 14 16 17 18 18 18 18 18
6 11 12 13 14 15 15 14 14 14 12 11 11 11 14 14 10 8 7 10 10 9 9 8 7 7 6 5 5 5 7 8 9 10 9 9 8 7 8 8 8 8 10 11 12 12 13 13 13 14 14 14 15 15 15 16 16 16 15 15 14 13 12 12 12 12 12 12 13 13 13 14 15 15 16 17 16 16 17 17 17 17 17 17 17 17 17 17 17 17 18 17 17 17 17 17 17
13 18 16 15 14 11 11 13 11 10 8 8 10 8 9 6 5 3 6 9 11 10 9 8 8 8 7 6 5 5 6 7 8 8 7 7 6 5 6 7 7 8 9 10 11 12 12 12 13 14 14 15 15 16 17 17 18 18 17 17 16 16 16 15 15 14 14 14 13 14 14 14 14 15 16 17 17 18 18 19 19 20 19 19 19 19 19 19 20 20 21 21 21 21 20 20 20
21 21 15 11 12 10 9 9 7 6 5 6 10 7 4 2 4 6 12 11 10 10 11 9 7 7 6 6 5 5 5 5 4 3 3 3 2 2 4 6 6 7 8 9 10 10 11 11 12 13 14 14 15 16 17 17 18 18 18 18 17 17 17 17 17 17 17 16 16 15 15 15 15 15 16 17 18 18 19 19 20 21 21 21 21 21 21 21 21 21 21 22 22 23 23 23 23
17 14 10 4 7 8 7 6 3 4 3 5 7 4 2 4 1 10 16 13 11 10 10 9 8 7 6 5 4 4 3 2 2 2 2 2 2 1 2 4 5 6 7 8 9 9 10 11 12 12 13 14 15 15 16 17 17 18 18 19 18 18 18 18 18 18 18 18 18 17 17 16 16 17 18 18 18 19 19 20 20 21 21 22 22 22 23 22 23 23 23 23 23 24 25 25 25
7 6 6 1 5 5 6 6 2 4 4 5 3 2 4 5 3 15 17 15 14 13 12 11 10 8 8 7 5 5 5 4 4 4 5 5 5 3 2 2 3 4 6 7 8 9 10 11 12 12 13 14 15 16 17 17 17 18 18 18 18 18 18 19 19 19 20 20 20 20 20 18 18 19 20 21 21 20 20 20 21 22 22 23 23 23 24 24 25 25 25 25 26 26 26 27 27
2 2 3 2 3 2 5 7 4 4 1 3 3 1 5 6 7 17 17 16 17 15 15 13 11 11 9 8 7 7 6 6 7 7 8 8 8 5 2 1 1 3 4 6 7 8 10 10 11 12 14 15 16 18 18 19 19 18 18 18 18 18 18 18 19 19 20 20 21 22 23 22 21 20 21 22 23 23 24 23 23 23 24 25 24 25 26 26 26 26 26 27 28 28 28 28 29
4 3 3 3 3 1 5 6 6 4 2 2 3 1 4 5 11 19 18 18 17 15 16 15 13 12 10 9 9 9 8 8 9 9 11 10 8 6 3 2 3 4 5 6 8 9 10 11 12 13 14 16 17 19 20 20 20 20 20 20 19 19 19 19 19 20 20 20 21 22 23 23 22 22 22 23 24 25 26 26 25 26 27 27 27 27 27 27 28 28 27 28 30 31 31 31 30
4 3 1 3 4 3 3 2 7 6 2 2 2 1 3 3 10 21 20 19 18 16 16 16 15 13 12 11 10 10 10 10 11 11 11 10 8 5 4 3 4 5 6 7 8 9 10 11 12 14 15 16 18 19 21 22 22 22 22 22 22 22 22 22 21 21 21 21 21 21 22 22 22 22 23 24 25 27 28 28 28 28 29 30 30 29 29 29 29 30 30 28 30 32 33 33 33
5 4 2 3 2 3 3 2 9 11 4 4 4 1 4 4 7 20 21 19 18 17 16 16 15 14 12 12 12 11 11 11 11 11 10 10 8 6 5 5 5 6 7 8 8 9 10 11 13 15 16 18 19 21 23 24 25 25 25 25 25 25 24 24 24 23 23 23 23 23 23 23 23 23 24 25 26 27 29 30 30 29 31 32 32 32 31 31 30 31 32 31 31 33 34 35 35
2 3 2 3 3 3 5 4 7 12 7 5 5 2 6 7 4 17 21 18 17 15 15 15 14 14 13 12 13 12 12 11 10 9 9 9 9 7 7 7 7 8 8 9 9 11 12 13 15 16 18 20 22 23 25 26 26 27 27 27 28 28 28 26 25 25 25 25 25 25 25 25 25 26 26 27 28 29 30 31 31 31 32 34 34 34 33 33 33 32 33 34 33 33 35 36 36
4 2 1 2 4 2 3 3 5 11 7 4 5 5 8 8 3 11 19 17 15 12 11 13 15 15 14 14 13 13 13 12 10 9 9 9 9 9 9 9 9 9 10 10 12 14 15 17 18 19 21 23 24 26 27 28 28 29 29 30 30 30 30 29 27 27 27 27 26 26 26 26 27 27 28 29 30 31 32 33 33 34 34 35 36 36 36 35 35 35 35 36 36 36 36 36 37
3 2 3 4 4 4 5 3 5 13 7 3 4 6 8 9 7 7 15 14 12 10 8 11 15 16 15 15 14 15 14 12 10 11 11 10 10 10 11 12 12 12 12 12 14 16 17 18 20 22 24 25 27 29 30 30 31 31 31 32 33 33 33 32 30 29 29 28 27 27 27 28 28 29 29 31 32 33 34 35 36 36 36 37 38 38 38 38 37 37 37 38 38 39 39 38 38
2 4 3 4 4 5 6 3 4 11 6 3 5 7 9 11 11 1 11 11 9 12 11 10 14 16 16 16 15 15 14 13 12 13 13 11 11 11 12 13 13 13 14 14 16 18 18 19 20 23 25 27 29 31 32 33 33 34 33 34 34 35 34 34 33 32 31 30 29 28 29 29 30 31 31 32 34 35 36 37 37 38 38 38 39 40 40 39 39 38 38 39 40 41 42 41 39
4 3 3 3 3 5 6 3 5 9 3 3 5 7 8 10 10 9 9 7 6 11 12 9 10 13 16 16 16 15 15 14 13 13 13 12 10 10 12 12 12 14 15 16 17 17 18 18 20 23 26 28 30 30 32 33 33 33 34 35 35 35 35 35 35 35 35 34 33 32 32 32 33 34 34 35 36 36 37 38 39 39 39 39 40 41 41 40 39 39 38 40 41 42 43 43 41
4 4 4 1 3 2 3 3 7 9 1 2 3 4 6 8 8 11 11 8 5 0 4 6 7 10 14 16 16 16 16 15 13 13 12 10 9 10 11 12 12 14 16 16 16 16 17 17 20 26 29 30 31 30 31 31 31 30 31 32 33 35 35 35 36 36 36 37 36 36 36 36 37 38 38 38 38 38 38 38 39 40 40 40 41 42 42 41 39 39 39 39 41 43 45 44 42
3 2 5 1 2 1 3 5 7 7 1 1 4 4 5 8 8 8 11 16 16 12 10 9 10 9 11 15 17 17 16 15 13 11 9 8 9 10 11 12 13 15 15 15 15 17 18 19 24 30 31 32 32 30 29 30 30 30 30 30 31 32 34 34 35 36 36 37 38 38 38 38 39 40 40 39 39 39 38 38 39 40 40 40 41 42 42 41 40 39 39 39 40 42 45 46 45
4 1 4 4 1 2 5 7 5 4 2 2 4 5 3 6 7 6 6 10 12 15 18 18 18 16 13 12 13 15 14 13 9 7 7 8 10 11 12 14 15 16 17 17 19 21 22 25 29 31 31 32 31 30 29 29 29 29 30 30 30 31 33 33 34 35 36 37 38 38 38 38 38 39 39 39 39 39 39 39 39 40 41 41 41 42 42 42 41 40 39 40 41 42 44 47 47
3 1 5 5 2 3 5 5 3 3 1 4 4 5 1 4 6 5 6 6 7 12 17 20 23 22 19 14 8 6 6 6 5 5 7 8 10 12 13 15 16 18 20 21 24 25 26 28 30 30 30 31 31 30 30 30 30 30 29 29 29 30 32 33 33 34 35 36 37 37 37 37 37 37 38 39 39 39 40 40 40 40 41 41 41 42 43 42 42 41 40 40 41 42 43 46 48
3 1 4 1 4 4 3 1 2 1 1 4 5 4 3 1 3 5 6 5 7 9 11 16 21 22 21 17 10 6 3 3 4 6 7 9 12 14 15 17 18 20 23 25 26 27 27 28 28 28 29 30 30 30 30 30 31 31 30 30 30 30 32 33 34 35 36 38 39 40 40 39 39 39 39 40 40 40 40 41 41 41 42 42 42 43 43 43 42 42 41 41 41 42 42 45 48
4 3 0 5 4 3 3 3 1 1 2 4 6 5 3 1 3 5 4 4 6 7 6 10 15 17 19 18 14 11 9 7 8 9 11 13 15 17 19 20 21 23 24 25 25 26 26 27 27 27 28 29 30 30 30 30 30 30 30 31 31 32 32 34 35 36 37 38 40 41 41 41 41 41 41 42 42 42 42 42 43 43 43 43 43 43 43 44 43 43 42 41 42 42 42 44 46
8 5 3 3 1 2 3 3 1 2 5 2 4 5 2 2 3 4 3 3 3 5 5 7 11 13 13 14 13 13 13 11 12 13 14 16 17 18 20 21 22 22 22 23 24 25 26 27 28 28 29 30 30 30 29 29 29 30 31 31 32 33 34 35 36 37 38 39 40 41 41 41 41 41 41 41 42 42 43 44 44 44 44 44 44 44 44 43 43 42 42 42 41 42 42 43 44
10 5 4 4 3 3 3 2 2 4 4 2 2 2 1 1 3 3 1 0 2 3 4 6 9 10 10 11 11 12 14 12 12 13 14 17 18 19 21 22 23 23 23 24 24 25 26 27 28 28 29 29 29 29 29 30 31 31 32 32 34 35 36 37 38 39 40 40 41 42 42 41 41 41 40 40 40 40 40 41 42 42 43 43 43 44 43 42 41 39 39 39 40 41 43 43 44
9 4 2 3 2 3 3 4 4 5 2 4 2 2 2 2 3 4 3 3 3 3 3 5 7 8 8 9 9 10 12 11 12 14 16 19 20 21 22 24 24 25 25 25 25 26 27 27 28 29 29 29 29 30 30 31 31 31 32 33 34 35 36 37 38 40 41 42 43 43 42 41 41 41 41 40 39 38 38 38 38 37 37 38 38 39 40 40 39 39 38 40 41 41 42 43 44
9 6 4 4 2 3 2 3 3 1 3 3 1 3 2 2 4 4 4 5 5 5 4 4 5 7 6 8 10 10 11 13 15 17 19 20 21 22 23 24 25 26 26 26 26 27 27 27 28 29 30 30 30 31 31 31 32 33 35 35 35 35 35 37 38 40 41 41 41 41 41 41 42 43 42 42 41 39 38 37 36 35 34 35 35 36 38 39 40 41 43 44 44 44 43 43 44
7 4 3 3 3 4 2 3 2 2 5 3 1 2 1 2 3 4 5 3 5 5 4 4 5 7 8 9 10 12 13 15 17 18 20 21 21 23 24 24 25 25 26 26 26 26 27 28 29 30 31 32 32 32 32 33 35 35 34 33 34 35 37 39 40 39 39 39 39 40 42 43 44 45 44 42 41 40 39 39 39 39 39 40 40 41 42 43 43 44 45 45 46 45 44 44 44
4 1 2 3 3 3 1 2 1 2 5 5 4 2 1 1 2 4 6 3 3 6 5 4 7 7 8 10 11 13 14 16 17 19 20 21 23 24 24 23 25 26 27 26 26 27 28 29 30 31 32 33 33 33 33 34 33 32 32 34 36 39 41 40 39 39 39 41 42 44 44 44 44 44 44 43 43 43 43 44 44 45 46 46 46 45 45 44 43 42 43 43 43 43 42 42 42
2 1 4 2 2 3 1 2 3 2 2 4 3 1 2 2 2 1 2 3 3 5 6 5 7 7 8 12 13 13 15 16 18 20 21 22 23 22 22 23 25 27 28 27 27 29 30 31 31 31 32 32 32 33 32 31 32 33 36 39 41 41 40 40 41 42 43 44 44 44 44 44 44 45 45 46 46 46 46 47 47 48 48 47 46 44 43 42 41 41 41 41 41 39 39 39 39
2 3 2 2 3 5 2 2 2 3 2 3 2 2 3 2 2 2 2 2 4 4 5 6 7 7 10 14 14 14 17 19 21 22 22 23 22 21 23 25 26 27 28 28 28 29 29 30 31 31 31 31 31 31 31 33 35 38 40 41 42 41 41 42 44 44 44 43 43 43 44 45 46 46 46 47 47 47 47 47 47 47 46 44 44 43 42 42 41 41 41 40 40 39 38 38 38
2 2 1 1 2 4 3 1 4 5 1 3 3 3 4 2 1 2 1 4 6 6 7 7 7 11 14 17 16 18 21 22 22 22 21 21 21 22 25 26 26 26 27 28 28 28 28 29 30 31 30 30 30 32 35 38 40 41 42 43 42 43 43 43 43 43 43 43 44 44 45 45 46 45 46 46 46 47 47 46 45 45 44 43 43 43 42 42 42 42 42 42 42 41 41 41 41
5 1 1 2 3 2 2 2 2 2 2 4 5 4 3 2 2 3 4 5 5 6 6 5 10 15 17 18 19 21 23 22 22 21 21 22 22 25 26 26 25 25 26 27 28 28 30 31 31 31 30 31 34 37 40 42 42 43 43 43 43 43 42 42 43 43 43 43 44 44 43 44 44 44 45 45 45 46 46 45 45 44 44 43 43 43 42 42 42 42 42 42 42 42 42 42 42
5 3 3 2 3 2 1 1 2 1 2 3 4 4 2 4 4 5 6 6 5 6 5 5 12 17 17 18 21 23 24 23 23 22 22 24 24 26 26 25 24 24 27 30 31 32 33 33 33 32 33 36 39 42 43 43 43 43 43 44 43 43 43 43 43 43 43 43 42 42 42 43 44 44 44 43 43 43 42 42 42 42 42 42 42 42 41 40 40 40 40 41 41 41 41 41 42
3 4 4 3 1 1 1 1 2 3 1 1 2 4 4 5 3 5 6 6 5 5 3 7 15 18 19 21 24 25 25 24 23 22 22 25 25 26 26 24 23 26 31 34 34 33 32 31 32 34 37 40 42 44 43 43 43 43 44 44 44 44 44 43 42 42 41 42 42 42 42 43 44 43 41 40 41 41 41 42 42 43 43 43 42 42 42 41 41 42 42 42 42 42 42 43 43
1 1 2 1 0 3 3 2 2 2 2 3 2 3 7 5 3 4 5 5 5 3 3 10 18 20 21 25 25 25 25 25 24 22 24 27 26 25 25 24 26 31 34 34 33 31 30 31 33 36 39 42 43 43 43 43 44 44 44 44 44 43 42 41 41 41 41 41 42 42 42 42 43 42 41 42 44 45 45 45 45 46 46 46 46 46 46 46 46 46 46 47 47 47 47 47 47
Wind_Direction
198 196 201 198 191 197 223 189 142 353 72 76 330 44 360 350 48 66 95 152 104 44 57 62 61 71 88 99 103 88 62 65 48 37 121 259 306 325 330 5 68 68 68 75 75 75 71 67 64 73 100 107 106 98 96 96 95 93 90 91 88 93 102 100 94 87 77 73 77 74 69 72 69 64 65 67 47 30 40 40 29 23 22 22 22 22 355 293 189 184 177 179 186 185 181 169 146
196 192 195 189 183 193 201 134 96 354 61 64 351 41 334 352 41 38 53 98 117 132 96 74 71 70 81 96 94 73 54 51 42 67 98 330 296 341 5 66 71 66 74 84 85 83 77 72 74 79 90 106 107 97 98 97 98 99 95 95 92 95 100 100 97 90 83 81 84 81 77 77 75 69 63 59 52 42 40 37 21 11 3 357 350 352 333 289 248 216 204 202 202 214 208 189 172
190 189 187 182 178 167 167 93 95 107 82 109 38 355 347 50 61 54 79 113 126 127 100 74 71 55 61 74 51 49 60 42 41 64 84 39 135 71 66 71 62 59 72 90 96 93 85 75 76 80 83 94 100 96 98 100 101 101 100 100 100 103 104 104 104 101 102 105 99 92 90 90 88 76 68 62 55 53 46 41 35 24 15 359 344 339 321 300 273 247 232 225 220 229 216 194 192
183 186 182 177 170 149 113 72 110 113 116 158 100 7 30 94 97 74 84 123 138 133 90 59 62 51 58 56 37 57 59 31 27 35 71 82 93 70 72 72 65 60 64 85 98 98 93 86 84 85 84 89 95 92 91 96 100 104 108 108 109 109 109 113 115 119 123 122 116 110 105 98 98 84 77 75 61 58 49 44 39 33 35 26 18 5 333 306 273 263 252 246 249 249 221 197 195
176 178 176 176 172 152 94 74 64 90 125 188 123 46 72 105 103 93 85 100 121 137 125 96 89 68 64 49 39 46 28 32 24 36 71 78 78 72 77 79 75 68 61 70 85 93 88 90 94 92 91 91 95 94 94 98 100 106 112 114 119 122 125 129 129 135 133 125 126 125 109 92 98 94 89 84 71 64 44 36 38 36 44 40 41 37 15 345 282 263 256 250 254 258 244 215 207
169 170 168 162 143 129 89 79 68 82 23 359 109 355 109 122 114 111 93 82 75 87 102 101 111 98 76 49 49 51 35 50 40 50 79 79 79 81 86 87 80 74 66 61 66 77 73 77 89 92 93 92 95 99 103 106 105 104 108 114 122 128 132 134 136 145 147 145 147 146 127 101 66 53 72 65 39 27 6 355 343 341 344 357 29 38 29 22 2 288 265 253 248 249 247 238 230
164 163 160 137 83 69 84 100 92 90 12 18 55 351 80 127 127 116 91 78 57 63 85 96 108 98 78 33 50 50 46 55 50 56 76 81 88 90 90 91 85 77 71 60 55 62 61 57 68 79 86 92 97 100 103 111 110 100 100 103 105 107 107 101 110 122 101 124 226 216 178 154 42 339 317 306 319 319 325 331 319 312 312 314 311 303 320 347 6 355 306 267 255 253 247 242 238
162 156 147 125 60 46 79 94 73 78 18 17 35 28 43 72 111 87 54 70 50 43 77 104 96 81 68 74 82 49 45 51 53 61 73 79 89 94 95 93 87 80 72 65 60 62 61 50 43 54 63 72 82 83 82 83 71 62 70 73 61 44 21 7 6 355 347 345 335 336 338 331 315 327 324 316 320 323 319 317 311 309 309 310 309 305 299 296 303 320 9 1 284 266 254 248 241
157 145 131 113 71 65 81 79 61 63 37 30 36 36 44 57 87 92 76 77 81 55 50 172 97 84 110 90 85 48 41 52 59 63 76 82 84 89 94 91 85 81 76 72 71 67 62 49 35 32 35 42 46 55 51 34 23 14 8 2 353 348 337 333 341 338 331 334 342 354 355 351 342 320 324 328 328 329 323 319 315 311 308 305 304 302 299 293 289 283 294 317 308 296 266 244 245
145 126 124 92 80 96 86 61 58 65 49 46 35 33 42 63 80 84 89 86 89 67 61 103 107 115 123 91 84 54 42 58 69 76 87 91 89 91 91 88 84 81 79 74 74 73 69 62 57 52 42 37 35 48 50 43 35 28 27 24 21 19 13 2 360 354 342 342 345 349 348 345 335 319 319 322 322 323 323 323 320 313 306 299 296 295 295 291 288 283 279 278 279 291 294 222 224
119 77 103 76 76 97 96 80 72 67 28 34 30 31 41 70 80 74 81 85 83 84 75 81 98 116 113 88 90 65 58 76 81 99 98 97 94 94 92 89 87 84 83 80 80 79 77 75 72 70 65 60 58 60 60 59 52 45 49 50 49 48 48 46 40 30 8 2 358 348 342 339 328 320 320 318 319 320 316 317 317 313 305 296 291 289 289 289 287 285 282 279 277 277 283 259 231
103 16 71 75 70 86 102 97 88 77 11 13 10 20 47 69 76 69 75 84 81 78 63 80 121 117 95 89 100 92 109 84 90 107 102 101 98 95 93 91 90 87 85 82 81 80 79 78 78 78 75 72 69 66 64 63 59 56 57 55 55 53 52 52 50 44 31 23 16 9 4 359 343 330 333 335 334 325 315 317 321 317 309 301 294 288 285 287 285 283 282 281 283 281 280 275 262
99 62 79 75 37 102 103 98 104 70 14 9 12 24 72 70 66 76 86 80 67 68 60 96 134 110 89 110 114 131 110 89 101 108 105 104 102 99 98 94 91 88 85 81 77 74 73 73 73 74 74 73 71 69 67 65 63 59 58 55 54 52 50 48 46 42 35 29 23 20 18 11 360 351 354 355 353 344 336 339 340 333 324 314 304 295 289 288 285 282 281 279 282 286 286 283 274
87 83 89 96 38 97 108 115 121 83 79 188 86 63 82 69 63 89 97 75 45 68 80 103 131 108 118 123 123 142 119 114 119 112 112 110 109 107 102 98 94 90 86 82 76 71 68 66 65 63 63 63 64 65 64 63 61 56 52 50 47 45 45 42 38 35 32 28 22 19 18 14 8 4 4 2 0 359 358 354 351 347 341 334 323 312 302 294 290 284 280 279 278 281 283 284 280
96 92 87 101 62 62 106 153 147 126 175 193 142 94 78 63 87 90 69 79 65 96 111 116 129 106 142 155 148 153 137 138 138 129 126 120 119 113 108 104 99 93 85 79 74 67 60 56 53 50 48 49 51 51 51 51 50 45 40 39 38 32 29 28 26 25 23 20 17 14 10 7 4 4 5 2 2 3 1 357 352 350 346 343 339 331 321 308 298 290 284 282 279 279 280 280 278
101 99 79 77 75 68 109 153 143 126 192 157 136 98 68 53 75 77 41 112 106 92 111 93 93 103 150 148 146 156 149 147 143 135 130 124 121 114 110 105 97 90 77 66 56 51 47 37 32 30 27 32 34 34 31 28 30 28 24 22 19 16 12 11 9 8 6 5 7 9 4 356 352 354 356 356 358 359 357 357 351 346 343 339 337 335 332 323 312 302 293 287 284 281 280 280 278
96 87 68 76 89 94 124 165 163 141 150 154 155 77 89 68 70 83 78 111 97 81 86 72 85 116 131 134 144 156 151 147 142 136 130 124 121 114 109 100 87 73 56 40 28 25 25 19 20 19 12 15 14 15 7 1 4 1 359 355 352 352 349 348 346 344 343 344 346 351 352 347 346 348 351 351 351 350 347 348 348 345 343 340 334 330 328 327 322 314 305 296 290 285 281 280 279
70 76 70 82 90 16 277 198 152 125 111 123 142 94 116 117 93 100 85 80 83 83 83 85 101 109 118 129 143 152 149 148 143 138 130 124 121 114 103 83 57 32 19 20 24 17 16 18 20 18 12 11 6 7 4 358 356 351 353 353 352 349 346 342 337 332 329 329 326 326 330 333 337 338 342 344 345 347 345 343 342 340 339 340 336 331 328 325 324 321 314 305 297 289 281 278 278
56 85 79 67 98 30 38 86 87 94 108 95 86 90 104 115 105 105 85 63 73 80 79 95 104 104 115 127 140 148 148 147 143 137 129 123 117 96 67 42 26 26 35 46 52 51 50 47 44 40 36 32 25 22 22 18 14 12 12 11 11 10 7 3 356 350 343 340 333 329 331 330 332 331 329 329 331 335 339 340 340 338 335 334 332 330 327 323 323 323 318 313 305 296 288 280 275
43 57 81 67 129 53 54 78 88 103 114 97 87 90 88 94 95 105 114 84 62 74 87 106 108 111 120 123 135 143 143 144 142 136 128 115 85 43 36 42 57 69 73 72 71 68 64 60 56 52 48 44 41 36 33 30 28 27 25 24 24 24 23 20 17 14 10 6 358 350 345 340 337 332 326 320 317 315 316 320 323 327 330 332 330 327 322 320 323 321 318 315 310 304 297 289 281
42 47 96 105 103 63 57 84 95 104 110 100 96 91 75 76 97 110 116 90 48 52 120 127 122 121 120 123 129 134 138 137 134 129 115 83 63 65 74 79 81 80 78 76 72 69 64 59 56 53 50 47 44 42 39 37 35 33 31 32 31 32 31 28 26 24 23 21 16 7 357 350 344 337 330 322 316 312 310 309 307 308 313 318 320 322 322 322 324 322 319 315 313 311 307 303 297
70 46 70 69 83 77 68 88 96 101 102 96 84 76 80 87 80 74 89 93 74 95 129 130 123 123 123 125 125 125 130 124 123 116 105 101 97 97 93 87 83 78 75 72 68 64 59 56 53 50 48 45 42 40 38 37 34 32 29 29 29 28 30 30 28 26 26 26 24 19 10 2 354 349 342 333 322 316 314 310 306 301 299 299 299 303 307 312 315 317 320 320 319 318 316 312 307
94 45 58 70 81 87 82 85 91 97 89 80 77 90 104 92 67 61 81 92 108 114 122 122 117 120 122 120 117 116 119 115 118 113 111 113 106 100 94 87 83 78 75 72 67 63 58 54 50 46 41 37 35 31 29 28 24 24 22 21 17 16 18 19 19 17 17 16 15 14 11 7 2 2 358 352 342 334 332 326 317 308 302 295 292 291 290 295 300 301 306 312 317 318 316 315 313
95 77 65 78 85 88 88 85 85 83 83 88 108 110 83 79 81 77 87 98 116 118 120 121 117 120 121 121 117 114 119 119 119 117 116 112 106 99 94 89 85 81 78 73 67 62 56 51 46 42 39 34 32 28 24 21 17 15 13 10 6 4 2 1 3 5 5 4 4 4 3 3 360 359 359 360 358 353 352 348 344 337 330 320 312 307 296 293 292 290 290 293 298 302 304 305 306
72 99 93 89 90 93 92 88 87 84 95 109 107 96 83 97 106 93 100 121 127 128 131 127 123 124 127 130 126 128 130 126 123 120 118 111 108 105 100 97 91 84 76 69 64 60 55 50 45 41 39 35 32 28 23 19 15 12 8 5 2 360 356 352 354 354 356 356 357 359 358 359 358 357 355 355 356 354 353 351 350 348 346 342 337 334 327 320 313 307 301 294 294 295 297 298 297
77 108 107 102 100 102 97 91 93 91 101 111 92 94 109 104 92 92 120 142 150 154 145 139 138 133 133 138 138 148 144 134 131 125 122 116 110 109 106 99 89 80 70 65 60 54 50 46 40 36 34 31 29 25 22 17 12 8 5 2 358 356 353 351 350 350 351 352 352 354 355 356 355 356 354 351 352 352 352 351 350 349 348 345 342 341 338 335 331 328 325 321 319 315 314 312 307
121 112 108 108 108 107 102 100 99 90 89 97 101 129 137 99 37 113 148 141 150 155 144 139 139 135 130 128 124 128 129 128 130 128 125 118 110 109 100 91 83 75 68 64 57 50 46 42 37 33 28 25 23 20 18 15 10 6 2 359 356 352 350 348 347 346 347 348 349 350 350 352 352 353 352 350 349 350 350 349 349 348 346 345 343 341 339 337 335 333 331 329 327 325 325 324 321
123 112 99 93 98 92 86 100 99 86 85 107 122 140 164 4 5 157 162 148 148 147 141 141 139 139 133 124 118 111 110 116 125 138 134 124 121 101 86 83 73 66 61 57 50 44 41 38 36 33 28 23 20 18 17 15 11 6 2 357 353 350 348 346 344 343 343 343 344 345 344 346 348 350 350 349 348 348 347 347 346 344 342 342 341 338 336 334 332 331 330 327 325 324 324 324 323
121 113 100 61 65 63 41 58 83 91 121 153 126 87 346 317 347 157 160 158 162 156 152 158 156 156 150 146 145 137 149 172 189 215 221 245 245 194 107 93 73 58 47 45 41 35 33 30 29 28 28 24 21 20 19 17 12 7 2 357 351 347 344 342 341 340 339 338 337 338 338 339 341 344 346 346 345 343 343 343 342 341 339 337 337 335 332 331 329 328 328 325 324 323 322 323 322
118 100 100 67 27 19 6 29 69 103 130 184 138 26 299 298 181 159 162 167 170 172 171 172 172 172 169 169 174 178 193 215 221 232 249 266 264 246 172 117 81 55 37 37 34 28 26 23 20 18 20 19 17 16 15 13 10 5 0 354 349 343 340 337 336 335 335 334 333 333 334 335 336 338 339 341 341 339 338 339 338 337 335 333 333 332 329 328 327 326 327 325 324 324 323 323 323
82 45 55 48 53 317 332 16 36 78 132 204 96 75 258 277 189 167 170 176 175 179 180 180 181 178 179 184 192 197 204 227 238 243 254 265 263 249 219 186 32 21 20 28 25 22 18 14 12 9 10 10 9 9 7 5 2 358 354 350 345 339 335 331 330 329 330 331 331 332 333 333 334 334 333 334 335 335 333 334 335 334 333 331 329 329 328 327 326 324 326 325 324 324 323 324 324
32 49 360 355 74 294 314 16 43 54 268 234 84 140 260 266 197 178 176 184 185 185 185 186 186 184 190 197 201 210 218 232 243 251 259 265 258 244 247 282 329 345 357 7 7 7 5 3 2 1 2 3 3 1 359 357 353 350 346 343 340 336 332 328 326 325 326 327 328 330 330 330 330 330 329 328 328 330 330 329 331 332 331 329 327 326 326 325 325 323 323 324 324 323 323 323 324
6 68 38 343 42 9 324 13 24 21 327 321 36 214 269 293 196 184 182 189 192 189 189 188 189 192 197 204 212 221 230 239 248 257 263 263 252 242 262 294 316 326 334 342 349 352 352 355 355 355 356 356 356 354 352 349 346 344 340 336 335 333 331 328 327 326 327 327 326 327 325 325 325 324 323 323 323 325 325 326 327 329 329 327 326 324 323 323 323 322 320 322 323 322 322 322 323
343 23 37 353 7 17 1 329 2 15 16 335 354 200 247 291 201 190 189 192 194 192 191 189 192 199 204 212 220 228 239 247 257 267 266 257 249 249 269 290 305 313 318 322 332 340 345 351 351 351 351 349 348 347 345 343 341 339 336 333 330 330 330 328 328 327 327 326 325 325 323 322 322 320 320 319 319 321 322 323 323 325 325 324 323 322 321 321 321 320 319 319 320 320 320 321 322
289 339 2 347 338 18 19 334 355 12 359 334 2 345 283 302 228 195 194 194 196 193 192 194 199 205 209 217 226 235 243 252 267 272 266 259 258 267 282 295 303 308 316 318 326 337 343 348 348 348 348 345 343 341 339 337 335 334 332 329 327 327 328 327 328 327 327 326 324 324 323 322 321 320 321 319 318 319 320 320 321 322 322 321 320 320 320 320 319 319 318 317 318 317 317 319 320
206 247 170 27 345 319 330 310 3 12 348 326 5 342 308 318 293 203 196 194 196 194 197 206 208 209 215 223 231 238 244 254 267 265 264 270 276 284 294 303 306 310 317 321 328 336 340 343 343 344 343 340 337 335 334 331 330 329 328 326 325 326 326 325 326 327 327 327 325 324 323 322 322 321 321 320 319 318 318 319 319 320 320 319 318 318 318 318 318 317 317 317 316 315 315 316 318
180 142 110 57 14 317 301 283 15 22 5 298 344 338 322 333 322 229 192 186 191 194 201 214 214 215 221 228 236 242 248 256 259 256 260 268 278 290 300 304 305 310 318 322 329 335 337 339 337 336 338 335 332 330 329 327 325 326 324 323 323 323 323 323 324 326 327 327 326 325 324 323 323 322 321 321 320 318 317 317 317 317 317 317 316 316 316 316 316 316 316 316 315 314 313 314 316
101 107 106 58 26 315 303 269 358 25 30 281 342 2 351 354 348 334 160 165 188 199 208 220 221 222 225 232 242 247 251 254 251 251 254 261 273 290 303 308 311 315 320 324 330 333 334 334 332 333 334 331 329 327 325 323 322 322 320 319 321 320 320 320 321 323 324 326 325 324 323 323 322 322 321 321 320 318 316 316 315 315 315 315 315 314 314 313 313 314 314 314 313 312 311 311 314
50 68 100 56 4 302 307 315 338 10 42 274 346 21 8 3 11 49 110 148 200 210 221 241 243 239 236 238 247 248 247 251 252 252 256 262 277 298 308 311 314 315 319 324 328 329 329 330 331 332 331 328 326 325 323 322 321 320 317 316 317 317 317 318 318 319 321 323 323 323 322 321 321 320 320 319 318 316 315 314 313 313 313 313 313 312 312 311 311 311 312 311 311 310 309 309 310
47 52 79 2 340 348 320 330 336 340 297 235 358 46 27 13 27 44 57 66 59 248 260 298 296 275 263 259 258 253 248 253 255 254 258 269 288 306 309 310 312 312 316 322 323 323 324 326 330 331 331 330 329 328 325 322 320 318 316 315 315 314 315 316 315 315 318 319 320 320 320 319 319 319 318 317 316 314 313 312 311 311 311 311 311 310 309 308 308 309 309 309 309 308 306 306 306
1 56 93 78 339 9 263 285 327 333 290 138 38 53 22 9 24 26 34 51 50 38 30 10 356 338 299 280 267 256 254 259 262 262 266 280 296 304 306 308 310 310 314 316 315 315 315 318 326 330 331 331 332 332 330 326 323 320 317 315 313 313 312 312 311 312 314 315 315 315 316 316 316 315 315 314 313 312 311 310 310 309 308 308 307 306 305 305 305 305 306 306 306 304 303 303 302
341 324 133 144 161 268 273 295 330 10 28 15 51 66 10 353 18 12 7 37 36 28 30 19 14 14 353 316 279 261 256 257 265 275 282 292 302 307 308 311 313 312 312 311 311 314 315 319 325 327 328 329 331 332 332 331 327 324 322 318 316 314 312 310 310 311 312 312 312 312 313 313 313 313 313 312 312 311 310 310 308 307 306 305 304 303 302 301 302 302 302 302 301 302 301 299 297
347 289 147 138 127 290 288 309 355 70 3 336 48 97 138 332 4 349 338 11 18 19 21 17 19 20 13 359 324 279 259 260 279 296 300 306 310 310 308 310 310 311 314 315 318 321 321 322 325 325 325 327 329 331 332 331 330 328 326 323 320 317 315 313 312 313 313 314 314 314 315 315 315 314 314 313 312 311 310 309 308 307 306 304 302 301 300 299 299 299 299 299 298 299 299 296 294
304 186 122 25 306 285 262 327 40 96 253 339 17 79 121 333 343 319 326 14 19 9 7 9 19 27 28 30 36 50 51 13 352 333 325 325 320 317 317 317 317 318 321 321 322 323 322 323 324 324 325 326 328 330 331 330 330 329 328 326 324 322 319 318 318 318 318 318 317 317 317 316 317 316 315 314 312 310 308 307 307 306 305 304 302 300 299 298 298 297 296 296 296 296 295 294 293
267 229 16 304 285 229 189 128 86 330 60 12 348 33 83 262 287 311 338 39 18 355 345 354 13 29 39 46 52 52 43 26 8 352 343 338 334 333 331 329 326 325 325 324 324 325 325 326 326 326 326 327 329 330 329 329 329 328 328 327 324 322 320 319 318 317 317 317 316 315 315 315 315 314 313 313 312 310 308 306 305 304 303 302 301 299 298 297 295 294 293 293 293 292 292 291 290
288 298 350 344 52 115 127 104 102 39 59 47 331 19 73 256 288 314 355 51 356 323 314 335 5 26 36 40 40 30 16 8 360 350 344 340 337 336 334 332 331 330 329 329 328 328 328 327 327 327 327 327 328 328 328 328 329 328 327 325 323 321 320 318 316 315 315 315 314 313 312 311 310 310 309 309 308 306 305 304 304 303 303 302 301 299 298 296 293 292 291 291 291 290 290 289 288
311 339 35 36 39 53 75 58 81 62 20 257 267 6 106 245 284 261 273 42 248 279 305 330 359 14 22 24 17 8 4 360 351 343 338 338 336 336 337 337 337 337 335 334 332 331 331 329 330 329 328 328 328 328 329 329 329 327 326 324 323 321 320 319 318 317 317 316 315 314 312 311 310 309 309 308 306 304 302 301 300 300 299 299 298 298 298 296 294 291 290 290 290 289 289 288 287
345 3 50 55 6 13 34 353 33 71 329 251 235 349 82 159 254 233 247 276 237 226 263 302 340 357 8 10 358 353 358 352 344 341 340 341 341 340 341 340 340 338 336 336 335 334 333 332 333 331 329 330 329 329 328 328 327 327 326 325 323 323 323 322 320 319 319 317 316 316 315 314 313 312 312 310 309 307 305 303 301 299 298 297 296 296 296 295 295 294 293 292 292 290 289 288 287
7 4 21 57 21 4 23 333 9 93 260 233 208 353 50 195 247 226 241 275 248 223 236 271 326 344 343 349 350 345 346 344 342 344 344 343 342 342 343 341 340 340 338 338 337 336 335 334 333 331 330 330 330 330 329 328 328 327 328 327 325 325 323 322 320 318 318 317 317 317 316 315 314 313 312 311 309 308 307 305 303 302 301 299 298 296 295 294 293 293 292 292 291 290 289 288 286
2 353 23 76 77 33 339 296 348 310 276 276 330 348 324 279 273 208 197 237 242 232 245 281 319 336 329 332 341 339 339 342 343 344 343 341 341 342 342 341 341 340 339 338 337 336 334 333 332 330 330 330 330 330 329 328 328 328 327 325 323 321 320 319 317 316 316 316 315 315 314 313 312 311 310 309 308 307 305 303 302 301 299 298 297 295 294 292 291 290 289 288 288 288 288 288 287
324 258 87 91 113 84 333 261 265 282 287 300 331 3 168 244 292 210 190 204 245 237 242 287 314 327 337 337 338 338 338 342 344 343 341 339 339 340 339 338 338 338 337 336 334 333 332 330 330 329 329 329 328 327 327 327 326 325 322 320 319 319 318 317 315 314 314 314 314 313 312 311 311 310 309 307 306 305 304 303 302 301 300 299 298 297 295 294 292 291 289 288 287 287 287 286 286
297 122 70 39 127 119 149 213 200 230 305 304 311 289 193 214 295 294 174 211 253 240 238 292 325 330 347 345 338 338 340 343 344 340 338 338 338 337 335 334 336 338 338 337 334 332 330 329 328 327 327 327 327 327 326 325 322 320 319 320 320 319 318 316 314 313 313 313 313 312 311 310 309 308 307 306 305 304 304 303 302 301 301 301 300 299 298 296 295 293 292 290 289 288 287 286 285
320 52 35 265 171 124 105 315 344 55 50 284 294 306 296 321 320 352 48 263 274 285 272 294 327 335 343 343 340 342 343 343 341 338 337 337 335 333 334 336 337 339 339 337 336 333 331 330 329 329 329 329 328 327 325 323 321 321 321 321 320 318 316 315 314 313 313 313 312 310 310 308 307 307 306 306 305 304 304 304 303 303 303 302 301 300 298 297 296 295 293 291 290 288 287 285 284
47 37 306 241 84 86 95 40 358 34 44 276 326 324 297 335 317 270 303 278 283 310 296 288 327 342 341 343 344 342 340 338 336 336 335 333 332 333 336 338 336 336 336 335 335 333 332 331 331 331 331 329 327 325 324 323 323 323 322 321 319 318 317 315 314 314 313 312 311 310 310 308 308 308 307 307 307 306 306 306 306 305 304 302 301 299 298 297 296 294 292 291 290 289 288 286 285
74 97 231 96 68 14 32 67 24 8 314 289 316 321 269 229 228 226 234 242 260 295 294 298 337 342 339 339 340 337 335 334 333 335 334 332 331 333 335 337 335 334 335 335 334 332 331 331 331 330 328 326 325 325 325 325 324 323 321 320 320 319 318 317 316 315 314 313 312 312 311 311 310 310 310 309 309 308 308 308 307 306 305 303 302 301 300 299 297 295 294 292 291 290 289 287 286
44 48 357 37 114 162 307 60 138 187 289 294 316 332 290 235 213 196 216 223 230 266 280 319 332 332 331 332 335 334 332 332 332 333 333 333 331 332 334 336 334 333 334 335 334 331 330 330 328 326 325 325 326 327 326 325 323 322 321 321 321 320 320 319 318 317 316 315 315 315 314 313 312 311 311 311 311 310 310 309 307 306 305 303 302 301 300 300 299 297 296 294 293 292 290 289 287
3 27 24 358 359 79 40 15 119 131 171 232 320 316 276 253 211 185 209 218 218 237 267 321 324 327 332 335 335 333 332 332 331 330 331 332 331 332 334 334 333 332 333 334 333 331 329 327 325 324 325 327 328 327 326 324 323 324 324 323 322 322 322 321 319 319 318 318 317 316 315 314 313 313 313 312 310 308 306 305 303 301 300 299 299 298 297 297 296 295 294 293 292 291 290 289 288
188 85 100 140 330 72 75 327 319 85 141 173 161 285 273 261 206 192 208 214 229 272 311 316 323 329 334 335 335 332 331 332 330 328 329 332 333 333 333 333 332 332 333 333 332 331 328 326 325 326 328 329 328 327 325 325 326 326 325 324 324 324 323 322 321 321 320 319 318 317 316 316 314 313 311 308 306 304 303 301 300 298 297 296 295 294 294 294 293 292 292 290 290 290 290 289 288